Year,Month,Day,Hour,Minute,Value (Times are PST for temperature in C)
2014,07,08,10,02,21.30
2014,07,08,10,03,21.30
2014,07,08,10,04,21.30
2014,07,08,10,05,21.30
2014,07,08,10,06,21.30
2014,07,08,10,07,21.30
2014,07,08,10,08,21.30
2014,07,08,10,09,21.30
2014,07,08,10,10,21.30
2014,07,08,10,11,21.30
2014,07,08,10,12,21.50
2014,07,08,10,13,21.60
2014,07,08,10,14,21.60
2014,07,08,10,15,21.60
2014,07,08,10,16,21.60
2014,07,08,10,17,21.60
2014,07,08,10,18,21.60
2014,07,08,10,19,21.60
2014,07,08,10,20,21.70
2014,07,08,10,21,21.60
2014,07,08,10,22,21.60
2014,07,08,10,23,21.60
2014,07,08,10,24,21.60
2014,07,08,10,25,21.60
2014,07,08,10,26,21.60
2014,07,08,10,27,21.60
2014,07,08,10,28,21.60
2014,07,08,10,29,21.60
2014,07,08,10,30,21.60
2014,07,08,10,31,21.60
2014,07,08,10,32,21.60
2014,07,08,10,33,21.60
2014,07,08,10,34,21.60
2014,07,08,10,35,21.40
2014,07,08,10,36,21.30
2014,07,08,10,37,21.30
2014,07,08,10,38,21.20
2014,07,08,10,39,21.20
2014,07,08,10,40,21.20
2014,07,08,10,41,21.20
2014,07,08,10,42,21.20
2014,07,08,10,43,21.20
2014,07,08,10,44,21.30
2014,07,08,10,45,21.30
2014,07,08,10,46,21.30
2014,07,08,10,47,21.30
2014,07,08,10,48,21.30
2014,07,08,10,49,21.30
2014,07,08,10,50,21.30
2014,07,08,10,51,21.40
2014,07,08,10,52,21.50
2014,07,08,10,53,21.60
2014,07,08,10,54,21.60
2014,07,08,10,55,21.60
2014,07,08,10,56,21.60
2014,07,08,10,57,21.60
2014,07,08,10,58,21.60
2014,07,08,10,59,21.60
2014,07,08,11,00,21.60
2014,07,08,11,01,21.60
2014,07,08,11,02,21.60
2014,07,08,11,03,21.60
2014,07,08,11,04,21.60
2014,07,08,11,05,21.60
2014,07,08,11,06,21.50
2014,07,08,11,07,21.40
2014,07,08,11,08,21.40
2014,07,08,11,09,21.30
2014,07,08,11,10,21.30
2014,07,08,11,11,21.30
2014,07,08,11,12,21.20
2014,07,08,11,13,21.20
2014,07,08,11,14,21.20
2014,07,08,11,15,21.20
2014,07,08,11,16,21.20
2014,07,08,11,17,21.10
2014,07,08,11,18,21.20
2014,07,08,11,19,21.20
2014,07,08,11,20,21.30
2014,07,08,11,21,21.30
2014,07,08,11,22,21.40
2014,07,08,11,23,21.50
2014,07,08,11,24,21.60
2014,07,08,11,25,21.60
2014,07,08,11,26,21.60
2014,07,08,11,27,21.60
2014,07,08,11,28,21.60
2014,07,08,11,29,21.40
2014,07,08,11,30,21.40
2014,07,08,11,31,21.40
2014,07,08,11,32,21.40
2014,07,08,11,33,21.40
2014,07,08,11,34,21.50
2014,07,08,11,35,21.60
2014,07,08,11,36,21.60
2014,07,08,11,37,21.60
2014,07,08,11,38,21.60
2014,07,08,11,39,21.60
2014,07,08,11,40,21.60
2014,07,08,11,41,21.60
2014,07,08,11,42,21.60
2014,07,08,11,43,21.60
2014,07,08,11,44,21.50
2014,07,08,11,45,21.50
2014,07,08,11,46,21.60
2014,07,08,11,47,21.60
2014,07,08,11,48,21.60
2014,07,08,11,49,21.60
2014,07,08,11,50,21.60
2014,07,08,11,51,21.60
2014,07,08,11,52,21.60
2014,07,08,11,53,21.60
2014,07,08,11,54,21.70
2014,07,08,11,55,21.80
2014,07,08,11,56,21.90
2014,07,08,11,57,22.00
2014,07,08,11,58,22.10
2014,07,08,11,59,22.20
2014,07,08,12,00,22.30
2014,07,08,12,01,22.40
2014,07,08,12,02,22.40
2014,07,08,12,03,22.50
2014,07,08,12,04,22.50
2014,07,08,12,05,22.50
2014,07,08,12,06,22.50
2014,07,08,12,07,22.50
2014,07,08,12,08,22.60
2014,07,08,12,09,22.60
2014,07,08,12,10,22.60
2014,07,08,12,11,22.50
2014,07,08,12,12,22.50
2014,07,08,12,13,22.60
2014,07,08,12,14,22.70
2014,07,08,12,15,22.80
2014,07,08,12,16,22.90
2014,07,08,12,17,22.90
2014,07,08,12,18,22.80
2014,07,08,12,19,22.70
2014,07,08,12,20,22.60
2014,07,08,12,21,22.50
2014,07,08,12,22,22.50
2014,07,08,12,23,22.50
2014,07,08,12,24,22.60
2014,07,08,12,25,22.70
2014,07,08,12,26,22.60
2014,07,08,12,27,22.60
2014,07,08,12,28,22.60
2014,07,08,12,29,22.60
2014,07,08,12,30,22.70
2014,07,08,12,31,22.60
2014,07,08,12,32,22.60
2014,07,08,12,33,22.70
2014,07,08,12,34,22.80
2014,07,08,12,35,22.80
2014,07,08,12,36,22.90
2014,07,08,12,37,23.00
2014,07,08,12,38,23.20
2014,07,08,12,39,23.30
2014,07,08,12,40,23.30
2014,07,08,12,41,23.30
2014,07,08,12,42,23.30
2014,07,08,12,43,23.20
2014,07,08,12,44,23.20
2014,07,08,12,45,23.20
2014,07,08,12,46,23.20
2014,07,08,12,47,23.20
2014,07,08,12,48,23.30
2014,07,08,12,49,23.40
2014,07,08,12,50,23.50
2014,07,08,12,51,23.60
2014,07,08,12,52,23.70
2014,07,08,12,53,23.70
2014,07,08,12,54,23.80
2014,07,08,12,55,23.80
2014,07,08,12,56,23.80
2014,07,08,12,57,23.70
2014,07,08,12,58,23.70
2014,07,08,12,59,23.70
2014,07,08,13,00,23.80
2014,07,08,13,01,23.90
2014,07,08,13,02,24.00
2014,07,08,13,03,24.00
2014,07,08,13,04,23.90
2014,07,08,13,05,23.90
2014,07,08,13,06,23.90
2014,07,08,13,07,23.80
2014,07,08,13,08,23.80
2014,07,08,13,09,23.80
2014,07,08,13,10,23.80
2014,07,08,13,11,23.80
2014,07,08,13,12,23.80
2014,07,08,13,13,23.80
2014,07,08,13,14,23.70
2014,07,08,13,15,23.70
2014,07,08,13,16,23.60
2014,07,08,13,17,23.60
2014,07,08,13,18,23.60
2014,07,08,13,19,23.70
2014,07,08,13,20,23.80
2014,07,08,13,21,23.80
2014,07,08,13,22,23.80
2014,07,08,13,23,23.80
2014,07,08,13,24,23.80
2014,07,08,13,25,23.90
2014,07,08,13,26,23.90
2014,07,08,13,27,24.00
2014,07,08,13,28,24.10
2014,07,08,13,29,24.00
2014,07,08,13,30,24.00
2014,07,08,13,31,24.10
2014,07,08,13,32,24.00
2014,07,08,13,33,24.10
2014,07,08,13,34,24.10
2014,07,08,13,35,24.20
2014,07,08,13,36,24.10
2014,07,08,13,37,23.90
2014,07,08,13,38,23.80
2014,07,08,13,39,23.90
2014,07,08,13,40,24.00
2014,07,08,13,41,24.10
2014,07,08,13,42,24.20
2014,07,08,13,43,24.30
2014,07,08,13,44,24.30
2014,07,08,13,45,24.30
2014,07,08,13,46,24.10
2014,07,08,13,47,24.10
2014,07,08,13,48,24.00
2014,07,08,13,49,24.10
2014,07,08,13,50,24.10
2014,07,08,13,51,24.10
2014,07,08,13,52,24.10
2014,07,08,13,53,24.10
2014,07,08,13,54,24.10
2014,07,08,13,55,24.30
2014,07,08,13,56,24.30
2014,07,08,13,57,24.40
2014,07,08,13,58,24.50
2014,07,08,13,59,24.50
2014,07,08,14,00,24.60
2014,07,08,14,01,24.60
2014,07,08,14,02,24.60
2014,07,08,14,03,24.70
2014,07,08,14,04,24.70
2014,07,08,14,05,24.60
2014,07,08,14,06,24.50
2014,07,08,14,07,24.40
2014,07,08,14,08,24.40
2014,07,08,14,09,24.20
2014,07,08,14,10,24.10
2014,07,08,14,11,24.10
2014,07,08,14,12,24.10
2014,07,08,14,13,24.10
2014,07,08,14,14,24.20
2014,07,08,14,15,24.20
2014,07,08,14,16,24.30
2014,07,08,14,17,24.30
2014,07,08,14,18,24.30
2014,07,08,14,19,24.20
2014,07,08,14,20,24.00
2014,07,08,14,21,23.90
2014,07,08,14,22,24.00
2014,07,08,14,23,23.90
2014,07,08,14,24,24.10
2014,07,08,14,25,24.10
2014,07,08,14,26,24.10
2014,07,08,14,27,24.10
2014,07,08,14,28,24.10
2014,07,08,14,29,24.10
2014,07,08,14,30,24.10
2014,07,08,14,31,24.10
2014,07,08,14,32,24.10
2014,07,08,14,33,24.10
2014,07,08,14,34,24.10
2014,07,08,14,35,24.10
2014,07,08,14,36,24.10
2014,07,08,14,37,24.20
2014,07,08,14,38,24.20
2014,07,08,14,39,24.30
2014,07,08,14,40,24.30
2014,07,08,14,41,24.20
2014,07,08,14,42,24.10
2014,07,08,14,43,24.10
2014,07,08,14,44,24.10
2014,07,08,14,45,24.10
2014,07,08,14,46,24.10
2014,07,08,14,47,24.10
2014,07,08,14,48,24.10
2014,07,08,14,49,23.90
2014,07,08,14,50,23.90
2014,07,08,14,51,23.90
2014,07,08,14,52,23.90
2014,07,08,14,53,24.00
2014,07,08,14,54,24.00
2014,07,08,14,55,23.90
2014,07,08,14,56,23.90
2014,07,08,14,57,23.90
2014,07,08,14,58,23.90
2014,07,08,14,59,23.90
2014,07,08,15,00,23.90
2014,07,08,15,01,23.90
2014,07,08,15,02,23.80
2014,07,08,15,03,23.80
2014,07,08,15,04,23.90
2014,07,08,15,05,24.10
2014,07,08,15,06,24.20
2014,07,08,15,07,24.10
2014,07,08,15,08,24.20
2014,07,08,15,09,24.30
2014,07,08,15,10,24.50
2014,07,08,15,11,24.50
2014,07,08,15,12,24.40
2014,07,08,15,13,24.30
2014,07,08,15,14,24.20
2014,07,08,15,15,24.20
2014,07,08,15,16,24.20
2014,07,08,15,17,24.20
2014,07,08,15,18,24.20
2014,07,08,15,19,24.30
2014,07,08,15,20,24.30
2014,07,08,15,21,24.40
2014,07,08,15,22,24.50
2014,07,08,15,23,24.40
2014,07,08,15,24,24.40
2014,07,08,15,25,24.50
2014,07,08,15,26,24.50
2014,07,08,15,27,24.50
2014,07,08,15,28,24.60
2014,07,08,15,29,24.70
2014,07,08,15,30,24.70
2014,07,08,15,31,24.70
2014,07,08,15,32,24.70
2014,07,08,15,33,24.70
2014,07,08,15,34,24.60
2014,07,08,15,35,24.50
2014,07,08,15,36,24.50
2014,07,08,15,37,24.40
2014,07,08,15,38,24.50
2014,07,08,15,39,24.50
2014,07,08,15,40,24.60
2014,07,08,15,41,24.70
2014,07,08,15,42,24.60
2014,07,08,15,43,24.60
2014,07,08,15,44,24.70
2014,07,08,15,45,24.80
2014,07,08,15,46,24.80
2014,07,08,15,47,24.80
2014,07,08,15,48,24.80
2014,07,08,15,49,24.90
2014,07,08,15,50,25.00
2014,07,08,15,51,25.00
2014,07,08,15,52,25.20
2014,07,08,15,53,25.40
2014,07,08,15,54,25.40
2014,07,08,15,55,25.40
2014,07,08,15,56,25.40
2014,07,08,15,57,25.50
2014,07,08,15,58,25.60
2014,07,08,15,59,25.50
2014,07,08,16,00,25.50
2014,07,08,16,01,25.50
2014,07,08,16,02,25.40
2014,07,08,16,03,25.30
2014,07,08,16,04,25.30
2014,07,08,16,05,25.40
2014,07,08,16,06,25.50
2014,07,08,16,07,25.70
2014,07,08,16,08,25.70
2014,07,08,16,09,25.70
2014,07,08,16,10,25.70
2014,07,08,16,11,25.60
2014,07,08,16,12,25.70
2014,07,08,16,13,25.70
2014,07,08,16,14,25.80
2014,07,08,16,15,25.80
2014,07,08,16,16,25.80
2014,07,08,16,17,25.80
2014,07,08,16,18,25.60
2014,07,08,16,19,25.40
2014,07,08,16,20,25.30
2014,07,08,16,21,25.40
2014,07,08,16,22,25.50
2014,07,08,16,23,25.60
2014,07,08,16,24,25.60
2014,07,08,16,25,25.60
2014,07,08,16,26,25.50
2014,07,08,16,27,25.50
2014,07,08,16,28,25.60
2014,07,08,16,29,25.70
2014,07,08,16,30,25.70
2014,07,08,16,31,25.80
2014,07,08,16,32,25.70
2014,07,08,16,33,25.70
2014,07,08,16,34,25.80
2014,07,08,16,35,25.80
2014,07,08,16,36,25.90
2014,07,08,16,37,25.90
2014,07,08,16,38,25.80
2014,07,08,16,39,25.60
2014,07,08,16,40,25.50
2014,07,08,16,41,25.40
2014,07,08,16,42,25.30
2014,07,08,16,43,25.20
2014,07,08,16,44,25.20
2014,07,08,16,45,25.30
2014,07,08,16,46,25.50
2014,07,08,16,47,25.60
2014,07,08,16,48,25.60
2014,07,08,16,49,25.30
2014,07,08,16,50,25.20
2014,07,08,16,51,25.10
2014,07,08,16,52,25.10
2014,07,08,16,53,25.20
2014,07,08,16,54,25.20
2014,07,08,16,55,25.20
2014,07,08,16,56,25.30
2014,07,08,16,57,25.40
2014,07,08,16,58,25.50
2014,07,08,16,59,25.50
2014,07,08,17,00,25.50
2014,07,08,17,01,25.70
2014,07,08,17,02,25.80
2014,07,08,17,03,25.80
2014,07,08,17,04,25.70
2014,07,08,17,05,25.70
2014,07,08,17,06,25.70
2014,07,08,17,07,25.60
2014,07,08,17,08,25.50
2014,07,08,17,09,25.40
2014,07,08,17,10,25.20
2014,07,08,17,11,25.20
2014,07,08,17,12,25.20
2014,07,08,17,13,25.20
2014,07,08,17,14,25.20
2014,07,08,17,15,25.40
2014,07,08,17,16,25.40
2014,07,08,17,17,25.40
2014,07,08,17,18,25.50
2014,07,08,17,19,25.60
2014,07,08,17,20,25.60
2014,07,08,17,21,25.70
2014,07,08,17,22,25.70
2014,07,08,17,23,25.80
2014,07,08,17,24,25.80
2014,07,08,17,25,25.90
2014,07,08,17,26,25.90
2014,07,08,17,27,25.90
2014,07,08,17,28,25.90
2014,07,08,17,29,25.90
2014,07,08,17,30,25.90
2014,07,08,17,31,25.90
2014,07,08,17,32,25.80
2014,07,08,17,33,25.80
2014,07,08,17,34,25.70
2014,07,08,17,35,25.70
2014,07,08,17,36,25.70
2014,07,08,17,37,25.80
2014,07,08,17,38,25.80
2014,07,08,17,39,25.80
2014,07,08,17,40,25.90
2014,07,08,17,41,25.90
2014,07,08,17,42,26.00
2014,07,08,17,43,26.20
2014,07,08,17,44,26.40
2014,07,08,17,45,26.40
2014,07,08,17,46,26.30
2014,07,08,17,47,26.20
2014,07,08,17,48,26.20
2014,07,08,17,49,26.20
2014,07,08,17,50,26.30
2014,07,08,17,51,26.30
2014,07,08,17,52,26.20
2014,07,08,17,53,26.20
2014,07,08,17,54,26.10
2014,07,08,17,55,26.20
2014,07,08,17,56,26.20
2014,07,08,17,57,26.40
2014,07,08,17,58,26.60
2014,07,08,17,59,26.70
2014,07,08,18,00,26.80
2014,07,08,18,01,26.80
2014,07,08,18,02,26.80
2014,07,08,18,03,26.70
2014,07,08,18,04,26.60
2014,07,08,18,05,26.60
2014,07,08,18,06,26.60
2014,07,08,18,07,26.60
2014,07,08,18,08,26.60
2014,07,08,18,09,26.60
2014,07,08,18,10,26.60
2014,07,08,18,11,26.70
2014,07,08,18,12,26.70
2014,07,08,18,13,26.70
2014,07,08,18,14,26.70
2014,07,08,18,15,26.70
2014,07,08,18,16,26.80
2014,07,08,18,17,26.90
2014,07,08,18,18,26.90
2014,07,08,18,19,26.90
2014,07,08,18,20,26.70
2014,07,08,18,21,26.60
2014,07,08,18,22,26.60
2014,07,08,18,23,26.50
2014,07,08,18,24,26.40
2014,07,08,18,25,26.40
2014,07,08,18,26,26.40
2014,07,08,18,27,26.40
2014,07,08,18,28,26.40
2014,07,08,18,29,26.40
2014,07,08,18,30,26.50
2014,07,08,18,31,26.60
2014,07,08,18,32,26.60
2014,07,08,18,33,26.60
2014,07,08,18,34,26.60
2014,07,08,18,35,26.70
2014,07,08,18,36,26.70
2014,07,08,18,37,26.70
2014,07,08,18,38,26.70
2014,07,08,18,39,26.60
2014,07,08,18,40,26.60
2014,07,08,18,41,26.60
2014,07,08,18,42,26.60
2014,07,08,18,43,26.60
2014,07,08,18,44,26.60
2014,07,08,18,45,26.70
2014,07,08,18,46,26.80
2014,07,08,18,47,26.80
2014,07,08,18,48,26.90
2014,07,08,18,49,26.90
2014,07,08,18,50,26.70
2014,07,08,18,51,26.60
2014,07,08,18,52,26.60
2014,07,08,18,53,26.60
2014,07,08,18,54,26.60
2014,07,08,18,55,26.60
2014,07,08,18,56,26.60
2014,07,08,18,57,26.60
2014,07,08,18,58,26.60
2014,07,08,18,59,26.60
2014,07,08,19,00,26.60
2014,07,08,19,01,26.50
2014,07,08,19,02,26.40
2014,07,08,19,03,26.40
2014,07,08,19,04,26.50
2014,07,08,19,05,26.60
2014,07,08,19,06,26.60
2014,07,08,19,07,26.60
2014,07,08,19,08,26.40
2014,07,08,19,09,26.40
2014,07,08,19,10,26.40
2014,07,08,19,11,26.40
2014,07,08,19,12,26.40
2014,07,08,19,13,26.40
2014,07,08,19,14,26.30
2014,07,08,19,15,26.30
2014,07,08,19,16,26.20
2014,07,08,19,17,26.30
2014,07,08,19,18,26.30
2014,07,08,19,19,26.20
2014,07,08,19,20,26.10
2014,07,08,19,21,26.00
2014,07,08,19,22,25.90
2014,07,08,19,23,25.70
2014,07,08,19,24,25.70
2014,07,08,19,25,25.70
2014,07,08,19,26,25.70
2014,07,08,19,27,25.70
2014,07,08,19,28,25.60
2014,07,08,19,29,25.70
2014,07,08,19,30,25.80
2014,07,08,19,31,25.80
2014,07,08,19,32,25.80
2014,07,08,19,33,25.70
2014,07,08,19,34,25.70
2014,07,08,19,35,25.60
2014,07,08,19,36,25.60
2014,07,08,19,37,25.60
2014,07,08,19,38,25.50
2014,07,08,19,39,25.40
2014,07,08,19,40,25.40
2014,07,08,19,41,25.20
2014,07,08,19,42,25.10
2014,07,08,19,43,24.90
2014,07,08,19,44,24.80
2014,07,08,19,45,24.60
2014,07,08,19,46,24.40
2014,07,08,19,47,24.30
2014,07,08,19,48,24.30
2014,07,08,19,49,24.20
2014,07,08,19,50,24.10
2014,07,08,19,51,24.10
2014,07,08,19,52,24.10
2014,07,08,19,53,23.90
2014,07,08,19,54,23.90
2014,07,08,19,55,23.80
2014,07,08,19,56,23.70
2014,07,08,19,57,23.70
2014,07,08,19,58,23.70
2014,07,08,19,59,23.70
2014,07,08,20,00,23.70
2014,07,08,20,01,23.70
2014,07,08,20,02,23.70
2014,07,08,20,03,23.70
2014,07,08,20,04,23.70
2014,07,08,20,05,23.70
2014,07,08,20,06,23.70
2014,07,08,20,07,23.70
2014,07,08,20,08,23.70
2014,07,08,20,09,23.70
2014,07,08,20,10,23.70
